Location: Unspecified
(44.4377°N, 88.0525°W)
Time: 20:36:06
(UTC-05:00)

Okean 3 - Visible Passes

Search period start: 24 April 2015 00:00
Search period end: 04 May 2015 00:00
Orbit: 581 x 605 km, 82.5° (Epoch: 24 April)

Date Brightness Start Highest point End Pass type
(mag) Time Alt. Az. Time Alt. Az. Time Alt. Az.
24 Apr 3.3 21:59:56 45° S 22:01:10 90° E 22:05:27 10° N visible
25 Apr 5.4 20:31:56 10° ESE 20:33:34 12° E 20:35:26 10° ENE visible
25 Apr 3.9 22:08:23 28° SSW 22:10:27 58° W 22:14:39 10° N visible
26 Apr 5.0 20:40:10 12° SE 20:42:40 19° E 20:45:41 10° NE visible
26 Apr 4.8 22:16:43 16° SW 22:19:46 38° WNW 22:23:45 10° N visible
27 Apr 4.4 20:48:24 11° SSE 20:51:47 27° E 20:55:27 10° NNE visible
27 Apr 5.5 22:25:33 10° SW 22:29:08 26° WNW 22:32:42 10° NNW visible
28 Apr 3.9 20:56:58 10° SSE 21:00:56 41° E 21:04:59 10° NNE visible
28 Apr 6.1 22:35:36 10° WSW 22:38:34 18° WNW 22:41:26 10° NNW visible
29 Apr 3.4 21:05:56 10° S 21:10:07 65° E 21:14:21 10° NNE visible
29 Apr 6.5 22:46:12 10° W 22:48:02 12° WNW 22:49:42 10° NW visible
30 Apr 3.5 21:15:06 10° S 21:19:19 81° W 21:23:38 10° N visible
01 May 4.3 21:24:27 10° SSW 21:28:35 52° WNW 21:32:46 10° N visible
02 May 5.2 21:33:59 10° SW 21:37:53 34° WNW 21:41:49 10° N visible
03 May 5.9 21:43:45 10° SW 21:47:15 24° WNW 21:50:42 10° NNW visible
